This is the latest recevied weather packets stored in our database for station/object SR2WXM. If no packets are shown the sender has not sent any weather packets the latest 10 day(s).
| Time | Temp. | Humidity | Pressure | Rain* | Wind** | Luminosity | Snow |
|---|---|---|---|---|---|---|---|
| 1777662902 | 13.89° C | 49% | 1022.6 hPa | 0 mm | - | - | - |
| 1777662004 | 13.89° C | 50% | 1022.6 hPa | 0 mm | - | - | - |
| 1777661102 | 15° C | 48% | 1022.6 hPa | 0 mm | - | - | - |
| 1777660202 | 15.56° C | 43% | 1022.6 hPa | 0 mm | - | - | - |
| 1777659302 | 16.67° C | 41% | 1022.6 hPa | 0 mm | - | - | - |
| 1777658402 | 18.89° C | 37% | 1022.6 hPa | 0 mm | - | - | - |
| 1777657502 | 20° C | 34% | 1022.6 hPa | 0 mm | - | - | - |
| 1777656602 | 20.56° C | 31% | 1022.6 hPa | 0 mm | - | - | - |
| 1777655703 | 20.56° C | 31% | 1022.6 hPa | 0 mm | - | - | - |
| 1777654803 | 21.67° C | 29% | 1022.6 hPa | 0 mm | - | - | - |
| 1777653902 | 21.67° C | 29% | 1022.6 hPa | 0 mm | - | - | - |
| 1777653001 | 21.67° C | 28% | 1022.6 hPa | 0 mm | - | - | - |
| 1777652102 | 21.67° C | 30% | 1022.6 hPa | 0 mm | - | - | - |
| 1777651204 | 21.67° C | 28% | 1022.6 hPa | 0 mm | - | - | - |
| 1777650302 | 21.67° C | 28% | 1023 hPa | 0 mm | - | - | - |
| 1777649401 | 21.67° C | 28% | 1023 hPa | 0 mm | - | - | - |
| 1777648502 | 22.78° C | 28% | 1023 hPa | 0 mm | - | - | - |
| 1777647602 | 22.78° C | 27% | 1023.3 hPa | 0 mm | - | - | - |
| 1777646702 | 22.78° C | 25% | 1023.3 hPa | 0 mm | - | - | - |
| 1777645802 | 22.78° C | 25% | 1023.3 hPa | 0 mm | - | - | - |
| 1777644902 | 22.78° C | 26% | 1023.3 hPa | 0 mm | - | - | - |
| 1777644004 | 22.78° C | 27% | 1023.3 hPa | 0 mm | - | - | - |
| 1777643103 | 22.78° C | 30% | 1023.3 hPa | 0 mm | - | - | - |
| 1777642202 | 23.89° C | 33% | 1023.7 hPa | 0 mm | - | - | - |
| 1777641302 | 22.78° C | 31% | 1023.7 hPa | 0 mm | - | - | - |
* Rain latest hour (hover to see other rain measurements)
** Current wind speed in m/s (hover to see current wind gust speed)